FW7611 Weather Reports


time (UTC)temp
C
wind
direction
speed
KPH
gust
KPH
rain 1hr
cm
rain 24hr
cm
rain mn
cm
humidity
%
barometer
mb
20260906110048 21 0 0.0 3.2 0.00 0.00 0.00 94 1014.9
20260906104548 21 0 0.0 3.2 0.00 0.00 0.00 94 1014.7
20260906103041 21 28 0.0 3.2 0.00 0.00 0.00 94 1014.7
20260906101539 21 0 0.0 3.2 0.00 0.00 0.00 94 1014.6
20260906100047 21 0 0.0 0.0 0.00 0.00 0.00 94 1014.3
20260906094558 21 24 1.6 8.0 0.00 0.00 0.00 94 1014.2
20260906093126 21 0 0.0 4.8 0.00 0.00 0.00 94 1014.1
20260906091548 20 0 0.0 3.2 0.00 0.00 0.00 93 1014.0
20260906090043 20 38 0.0 3.2 0.00 0.00 0.00 93 1013.9
20260906084549 20 0 0.0 0.0 0.00 0.00 0.00 92 1013.7
20260906083052 21 0 0.0 0.0 0.00 0.00 0.00 92 1013.7
20260906081548 21 0 0.0 3.2 0.00 0.00 0.00 92 1013.5
20260906080045 21 0 0.0 3.2 0.00 0.00 0.00 91 1013.3
20260906074542 21 0 0.0 3.2 0.00 0.00 0.00 91 1013.3
20260906073041 21 0 0.0 0.0 0.00 0.00 0.00 91 1013.3
20260906071548 21 0 0.0 0.0 0.00 0.00 0.00 91 1013.5
20260906070047 21 0 0.0 0.0 0.00 0.00 0.00 91 1013.7
20260906064541 21 0 0.0 0.0 0.00 0.00 0.00 92 1013.9
20260906063050 21 0 0.0 0.0 0.00 0.00 0.00 92 1014.0
20260906061551 21 0 0.0 0.0 0.00 0.00 0.00 91 1014.0
20260906060048 21 0 0.0 0.0 0.00 0.00 0.00 90 1014.1
20260906054543 22 0 0.0 0.0 0.00 0.00 0.00 89 1014.0
20260906053048 22 0 0.0 0.0 0.00 0.00 0.00 89 1013.9
20260906051558 22 0 0.0 0.0 0.00 0.00 0.00 87 1013.9
20260906050056 22 0 0.0 0.0 0.00 0.00 0.00 88 1014.0
20260906044557 22 0 0.0 0.0 0.00 0.00 0.00 89 1014.1
20260906043048 22 0 0.0 0.0 0.00 0.00 0.00 88 1014.2
20260906041547 22 0 0.0 0.0 0.00 0.00 0.00 88 1014.2
20260906040059 22 0 0.0 0.0 0.00 0.00 0.00 87 1014.3
20260906034551 23 0 0.0 0.0 0.00 0.00 0.00 86 1014.4
20260906033050 23 0 0.0 0.0 0.00 0.00 0.00 86 1014.3
20260906031546 23 0 0.0 0.0 0.00 0.00 0.00 87 1014.3
20260906030043 23 0 0.0 0.0 0.00 0.00 0.00 86 1014.1
20260906024559 23 0 0.0 0.0 0.00 0.00 0.00 85 1014.2
20260906023047 23 0 0.0 1.6 0.00 0.00 0.00 85 1014.2
20260906021547 23 0 0.0 3.2 0.00 0.00 0.00 85 1014.0
20260906020043 24 0 0.0 0.0 0.00 0.00 0.00 83 1014.0
20260906014625 24 0 1.6 3.2 0.00 0.00 0.00 82 1014.1
20260906013052 23 0 0.0 0.0 0.00 0.00 0.00 84 1013.9
20260906011548 23 0 0.0 1.6 0.00 0.00 0.00 84 1013.7
20260906010052 23 0 0.0 0.0 0.00 0.00 0.00 86 1013.5
20260906004547 23 0 0.0 0.0 0.00 0.00 0.00 85 1013.5
20260906003040 23 0 0.0 0.0 0.00 0.00 0.00 85 1013.4
20260906001548 23 0 0.0 0.0 0.00 0.00 0.00 84 1013.3
20260906000047 24 0 0.0 0.0 0.00 0.00 0.00 82 1013.1
20260905234542 25 0 0.0 0.0 0.00 0.00 0.00 82 1013.0
20260905233045 25 0 0.0 0.0 0.00 0.00 0.00 79 1013.1
20260905231543 26 0 0.0 0.0 0.00 0.00 0.00 76 1013.0
20260905230048 26 0 0.0 1.6 0.00 0.00 0.00 73 1012.8
20260905224540 26 0 0.0 3.2 0.00 0.00 0.00 72 1013.0
20260905223043 26 0 0.0 3.2 0.00 0.00 0.00 71 1012.9
20260905221608 26 0 0.0 8.0 0.00 0.00 0.00 70 1012.9
20260905220047 26 0 1.6 6.4 0.00 0.00 0.00 72 1013.2
20260905214542 26 0 0.0 3.2 0.00 0.00 0.00 74 1013.2
20260905213058 26 0 0.0 0.0 0.00 0.00 0.00 74 1013.2
20260905211548 25 0 0.0 1.6 0.00 0.00 0.00 75 1013.4
20260905210447 25 286 0.0 3.2 0.00 0.00 0.00 75 1013.5